Temperature
13 13 13 13 13 13 13 13 13 12 12 12 12 12 12 12 12 12 12 12 11 11 11 11 11 11 11 11 11 11 11 11 11 11 11 10 10 10
13 13 13 13 13 13 13 13 13 13 12 12 12 12 12 11 11 12 11 11 11 11 11 11 11 11 11 11 11 11 11 11 11 10 10 10 10 10
13 13 13 13 13 13 13 13 13 13 12 12 12 11 11 11 11 11 11 11 11 11 11 11 11 11 11 11 11 11 10 10 10 10 10 10 10 10
13 13 13 13 13 13 13 13 12 12 12 12 11 11 11 11 11 11 11 11 11 11 11 11 11 11 11 11 10 10 10 10 10 10 10 9 9 9
13 13 13 13 13 13 13 12 12 12 12 12 11 11 11 11 11 11 10 10 11 11 10 10 10 10 10 10 10 10 10 10 10 10 9 9 9 9
13 13 13 13 12 12 12 12 12 12 12 11 11 11 11 10 10 10 10 10 10 10 10 10 10 10 10 10 10 10 10 10 10 9 9 9 9 9
12 12 12 12 12 12 12 12 12 11 11 11 11 11 11 10 10 10 10 10 10 10 10 10 10 10 10 10 10 10 10 10 9 9 9 9 9 9
12 12 12 12 12 12 12 12 11 11 11 11 11 11 11 11 10 10 10 10 9 9 9 9 9 9 9 9 9 9 9 9 9 9 9 9 9 9
12 12 12 12 12 12 12 12 11 11 11 11 11 11 11 11 10 10 10 10 10 10 9 9 9 9 9 9 9 9 9 9 9 9 9 9 8 8
11 11 12 12 12 12 12 11 11 11 11 11 11 11 11 10 10 10 10 9 9 9 9 9 9 9 9 9 9 9 9 9 9 9 9 8 8 8
11 11 11 11 11 11 11 11 11 11 11 11 11 11 10 10 10 10 9 9 9 9 9 8 8 8 8 8 9 8 8 9 9 8 8 8 8 8
11 11 11 11 11 11 11 11 11 11 11 11 10 10 10 10 10 10 10 9 9 8 8 8 8 8 8 8 8 8 8 8 8 8 8 8 8 8
10 10 10 11 11 11 10 10 10 10 10 10 10 10 10 10 10 10 9 9 9 9 9 8 8 8 8 8 8 8 8 8 8 8 8 8 7 7
10 10 10 10 10 10 10 10 10 10 10 10 10 10 10 10 9 9 9 9 9 9 8 8 8 8 8 7 7 7 7 7 7 7 7 7 7 7
10 10 10 10 10 10 10 9 9 9 9 9 9 9 9 9 9 9 9 9 8 8 8 8 8 8 8 8 7 7 7 7 7 7 7 7 7 7
10 9 9 9 9 9 9 9 9 9 9 9 9 9 9 9 9 9 8 8 8 8 8 8 8 8 8 8 7 7 7 7 7 7 7 7 7 7
9 9 9 9 9 9 9 9 9 9 9 9 9 8 8 8 8 8 8 8 8 8 8 7 7 7 7 7 7 7 7 7 7 7 7 7 7 7
9 8 9 9 9 9 9 9 9 9 8 8 8 8 8 8 8 8 8 8 8 7 7 7 7 7 7 7 7 7 7 7 7 6 6 6 6 6
8 8 8 8 8 8 8 8 8 9 8 8 8 8 8 8 8 8 7 7 7 7 7 7 7 6 6 6 7 7 7 7 6 6 6 6 6 6
8 8 8 8 8 8 8 8 8 8 8 8 8 8 8 8 7 7 7 7 7 7 7 6 6 6 6 6 6 7 7 6 6 6 6 6 6 6
8 8 8 8 8 7 7 8 8 8 8 8 8 8 8 7 7 7 7 7 7 6 6 6 6 6 6 6 6 6 6 6 6 6 6 5 5 5
8 8 8 7 7 7 7 7 7 7 7 7 7 7 7 7 7 7 7 7 6 6 6 6 6 6 6 6 6 6 6 6 6 5 5 5 5 5
7 7 7 7 7 7 7 7 7 7 7 7 7 7 7 7 7 7 6 6 6 6 6 6 6 6 6 6 6 6 5 5 5 5 5 5 5 5
Wind_Speed
1 1 1 1 1 1 2 2 3 1 1 1 0 2 5 7 7 5 5 5 5 4 4 4 5 6 6 6 7 7 7 7 8 8 8 8 7 8
0 1 1 1 1 1 2 1 1 2 1 1 1 2 3 4 5 4 5 5 4 4 4 3 4 4 4 5 6 6 6 6 7 7 7 7 7 7
2 2 2 2 2 1 1 1 1 2 2 1 1 2 3 3 3 4 5 5 4 3 3 3 3 3 3 4 4 4 5 5 5 5 5 6 6 6
2 1 2 2 2 1 1 1 1 1 3 2 1 2 2 4 4 3 3 4 4 4 4 3 2 3 3 3 3 3 4 4 4 4 4 5 5 5
2 2 2 3 2 1 2 1 1 1 2 2 2 1 2 3 2 2 2 3 3 4 4 3 3 2 2 2 2 2 2 3 3 4 3 3 3 3
2 2 2 3 3 3 2 2 2 2 1 1 2 2 2 2 2 2 1 1 1 3 4 3 3 2 3 3 2 2 1 1 2 3 3 3 2 2
2 1 2 3 3 3 2 2 3 2 2 2 2 2 2 2 3 2 2 1 1 2 2 2 3 3 3 3 3 3 2 2 0 1 2 2 2 1
2 1 3 3 4 3 3 3 4 4 4 3 3 3 4 3 3 2 2 1 1 1 1 1 3 2 3 4 5 4 4 3 3 2 1 1 0 0
2 2 2 2 4 2 3 3 3 5 5 4 4 4 4 4 4 3 3 2 2 3 1 1 2 1 3 3 5 5 5 4 4 3 3 2 2 2
2 2 2 2 2 3 3 3 3 4 5 4 4 3 3 4 5 5 4 2 0 1 2 1 1 1 2 3 5 6 6 6 5 4 4 4 3 3
2 2 2 3 3 3 2 3 3 2 3 3 4 4 4 5 6 4 3 2 1 3 2 2 1 1 1 2 5 6 6 6 7 6 6 5 4 4
2 2 3 3 4 4 2 3 3 3 3 2 2 3 4 5 6 6 5 4 2 2 3 2 2 0 1 2 3 5 6 7 8 8 8 7 6 4
2 2 2 4 4 5 4 3 5 3 3 4 3 3 3 3 4 5 5 4 3 3 3 3 2 1 2 2 2 4 6 5 5 6 7 8 8 7
3 2 2 4 5 5 3 4 4 3 2 2 2 3 3 3 4 5 5 5 5 4 5 4 2 3 2 2 2 2 3 5 5 5 5 6 7 8
2 3 4 5 4 3 4 6 4 3 2 3 3 4 4 4 3 3 3 3 3 4 5 5 3 3 3 3 3 2 2 3 4 4 4 5 5 4
2 2 3 4 4 4 4 4 4 4 3 4 4 4 3 3 3 3 3 2 2 3 5 6 5 4 3 3 4 4 3 3 3 3 3 4 5 5
2 1 1 2 2 3 3 3 4 3 4 4 4 3 3 4 3 3 3 3 3 3 3 2 3 4 4 4 4 5 4 3 3 3 2 3 3 5
4 3 3 4 4 4 4 4 4 4 5 4 4 4 4 4 4 3 3 3 4 4 4 3 2 1 2 3 6 6 4 4 3 3 3 3 4 4
4 5 5 5 5 4 4 5 5 5 4 5 5 5 4 4 4 4 4 4 4 4 4 3 3 3 4 5 5 7 5 4 3 3 4 4 5 4
5 5 5 5 5 5 5 5 4 4 4 5 5 5 5 5 4 5 5 5 5 4 4 3 4 5 6 6 4 4 8 6 4 5 4 3 3 3
5 5 5 5 5 5 5 5 5 5 5 4 5 5 5 5 5 5 5 7 6 5 6 6 6 6 3 1 3 3 3 7 7 5 4 2 3 3
5 5 5 4 4 4 4 4 4 4 5 5 5 5 5 5 6 6 6 5 6 6 6 4 3 3 3 5 6 5 4 3 4 6 7 6 4 5
5 5 5 4 4 4 4 5 5 4 4 5 5 5 5 5 5 5 6 6 5 5 4 4 3 3 4 5 5 4 5 4 2 2 4 6 8 9
Wind_Direction
185 170 161 175 139 131 139 151 149 174 259 220 118 116 112 119 134 137 139 135 124 106 83 67 58 56 55 56 53 47 48 51 52 54 54 54 54 57
194 156 182 178 156 151 167 178 150 165 198 223 209 153 122 127 136 123 130 141 130 122 106 88 74 69 67 64 57 50 48 51 52 52 52 51 50 50
226 190 202 172 139 156 150 159 170 137 165 230 171 148 127 123 126 131 133 142 141 136 128 111 98 87 81 75 65 54 48 48 50 51 49 49 50 50
230 192 193 159 141 149 137 170 155 158 160 178 194 164 153 151 149 157 147 145 142 154 149 143 132 121 103 91 80 64 54 51 49 48 47 46 46 45
222 205 196 163 157 181 189 170 160 132 141 167 190 182 169 152 140 147 134 133 150 160 157 159 158 155 147 132 117 91 69 57 47 42 41 40 42 45
220 207 179 162 173 181 181 167 150 140 152 158 177 181 173 157 138 149 156 197 198 169 162 164 170 179 192 184 177 164 135 91 46 32 29 26 33 45
235 190 158 149 153 165 177 169 160 170 175 183 192 186 184 163 178 180 173 188 246 171 149 179 178 186 205 212 205 204 205 203 201 28 25 29 34 29
231 184 166 142 136 152 170 178 175 179 186 190 208 207 210 188 171 164 160 155 240 228 140 225 173 197 184 187 201 206 212 215 219 223 236 298 317 331
222 197 213 177 150 170 201 203 199 195 194 192 204 214 206 185 166 176 186 197 212 205 161 233 196 198 175 189 200 207 215 222 228 228 229 235 243 238
231 191 186 173 188 178 195 206 215 217 216 207 203 209 193 173 172 182 185 175 204 215 169 210 220 217 201 178 205 212 216 220 223 229 233 239 240 234
233 202 195 186 203 183 204 217 213 228 223 199 196 193 193 184 169 150 161 159 227 244 213 180 212 247 239 219 205 210 219 225 228 233 237 235 237 241
251 217 208 210 211 201 210 216 215 223 215 227 230 220 194 187 181 176 178 179 196 226 214 176 206 171 280 240 202 204 214 228 235 236 238 239 242 232
247 244 222 202 207 224 230 228 226 218 218 212 212 215 198 183 189 194 186 181 191 235 211 181 209 209 214 253 248 212 202 211 218 230 237 245 243 220
241 238 228 219 228 233 231 228 229 221 206 211 214 209 205 203 200 200 205 205 208 218 215 199 208 204 209 260 263 234 218 215 209 211 220 240 242 234
247 232 231 231 229 231 229 229 229 223 211 212 227 225 212 204 183 184 201 203 216 235 228 229 207 199 193 219 238 239 252 246 210 207 214 218 221 219
254 249 229 216 212 219 227 233 222 220 212 218 228 227 212 187 183 184 197 202 221 261 247 234 214 196 217 226 222 241 229 219 220 223 220 228 227 224
200 201 225 224 212 217 222 220 215 218 223 224 222 224 217 200 198 195 193 203 219 232 246 257 227 211 212 217 234 237 232 233 224 213 213 241 247 227
192 208 217 216 219 219 220 222 220 221 217 213 217 220 216 209 208 206 201 205 223 234 232 227 204 312 329 295 230 227 229 229 226 212 215 237 255 240
205 219 220 222 226 228 227 223 222 222 217 213 217 220 221 213 209 212 212 218 229 233 232 218 204 200 234 264 267 224 220 228 215 223 225 231 244 245
217 222 227 228 228 228 230 232 227 221 219 220 216 217 216 212 212 214 216 222 228 232 235 225 216 215 224 238 249 256 223 215 214 224 236 245 257 255
225 230 230 229 229 228 228 230 230 225 221 219 220 220 216 211 216 218 218 226 224 225 232 236 234 224 233 232 260 264 254 230 227 219 215 223 252 255
229 233 236 234 230 230 230 227 233 231 225 225 228 227 223 217 217 218 218 221 225 229 236 240 222 206 220 232 243 249 258 264 250 239 231 225 213 222
230 233 234 233 234 236 236 232 233 236 229 227 230 234 231 224 219 217 221 222 225 227 230 232 221 220 230 232 238 246 246 242 230 247 271 266 249 247
Height
1528 1528 1528 1529 1529 1530 1530 1531 1531 1531 1532 1532 1532 1532 1532 1531 1531 1531 1530 1530 1529 1529 1528 1527 1526 1526 1525 1524 1523 1523 1522 1522 1521 1521 1520 1520 1519 1519
1526 1527 1527 1527 1528 1528 1529 1529 1530 1530 1530 1530 1531 1531 1531 1531 1531 1530 1529 1529 1529 1528 1528 1527 1526 1525 1525 1524 1523 1523 1522 1522 1521 1521 1520 1520 1520 1520
1524 1525 1525 1526 1526 1527 1527 1528 1528 1529 1528 1529 1529 1530 1530 1530 1529 1529 1529 1528 1528 1528 1527 1527 1526 1525 1524 1524 1523 1523 1522 1522 1521 1521 1521 1520 1520 1520
1522 1523 1523 1523 1524 1525 1525 1525 1526 1526 1527 1526 1527 1528 1528 1528 1528 1528 1528 1527 1527 1527 1526 1526 1525 1524 1524 1523 1523 1522 1522 1521 1521 1521 1520 1520 1519 1519
1520 1520 1521 1521 1522 1522 1523 1523 1524 1524 1525 1525 1525 1526 1526 1526 1526 1526 1526 1526 1526 1525 1525 1525 1524 1524 1523 1522 1522 1521 1521 1521 1520 1520 1520 1519 1519 1518
1518 1518 1518 1519 1519 1520 1520 1521 1521 1522 1522 1522 1523 1523 1524 1524 1524 1524 1524 1524 1524 1524 1523 1523 1523 1522 1522 1521 1521 1521 1520 1520 1519 1519 1519 1518 1518 1518
1515 1515 1515 1516 1516 1517 1518 1518 1518 1519 1519 1520 1520 1521 1522 1522 1522 1522 1522 1522 1523 1522 1522 1521 1521 1520 1520 1520 1520 1519 1519 1519 1518 1518 1518 1517 1517 1517
1511 1512 1512 1513 1514 1514 1515 1515 1516 1516 1517 1517 1518 1518 1519 1519 1519 1520 1520 1520 1520 1521 1520 1520 1519 1519 1519 1518 1518 1518 1517 1517 1517 1516 1516 1516 1515 1515
1508 1509 1509 1510 1510 1510 1511 1512 1513 1514 1515 1515 1515 1515 1516 1516 1516 1517 1517 1517 1517 1518 1518 1517 1517 1517 1517 1517 1516 1516 1516 1515 1515 1514 1514 1514 1513 1513
1505 1505 1506 1506 1507 1507 1507 1508 1509 1510 1511 1512 1512 1512 1513 1513 1514 1514 1514 1515 1516 1516 1516 1515 1515 1515 1515 1515 1514 1514 1513 1513 1512 1512 1512 1511 1511 1511
1501 1502 1502 1503 1503 1504 1504 1504 1505 1506 1507 1508 1509 1509 1510 1510 1511 1511 1512 1512 1512 1512 1513 1513 1513 1512 1512 1512 1512 1512 1511 1510 1510 1509 1509 1508 1508 1508
1497 1498 1499 1500 1500 1500 1501 1501 1501 1502 1503 1504 1505 1505 1506 1507 1507 1508 1508 1508 1508 1509 1509 1510 1510 1510 1509 1508 1509 1509 1508 1508 1507 1507 1506 1506 1505 1504
1493 1494 1495 1496 1496 1496 1497 1497 1498 1499 1499 1500 1500 1501 1502 1503 1503 1504 1504 1505 1505 1505 1506 1507 1506 1506 1506 1505 1505 1505 1505 1504 1504 1503 1503 1502 1502 1501
1489 1490 1491 1491 1492 1492 1493 1493 1494 1495 1495 1496 1496 1496 1497 1498 1499 1500 1501 1501 1502 1502 1502 1503 1503 1503 1502 1502 1501 1501 1501 1501 1500 1500 1499 1499 1498 1498
1486 1486 1487 1487 1488 1488 1488 1489 1490 1490 1491 1491 1492 1492 1493 1494 1495 1496 1496 1497 1498 1498 1499 1499 1499 1499 1499 1498 1497 1497 1497 1496 1496 1496 1495 1495 1495 1494
1482 1482 1483 1483 1483 1484 1484 1484 1485 1486 1486 1487 1487 1488 1489 1490 1490 1491 1491 1492 1492 1493 1494 1494 1494 1494 1494 1494 1493 1492 1493 1492 1492 1492 1492 1491 1491 1490
1477 1477 1478 1478 1478 1479 1479 1480 1480 1481 1482 1482 1483 1483 1484 1485 1485 1486 1487 1487 1487 1487 1488 1489 1489 1490 1490 1489 1488 1488 1488 1488 1488 1488 1487 1486 1486 1485
1473 1472 1473 1473 1473 1474 1474 1475 1475 1476 1477 1477 1478 1479 1479 1480 1481 1481 1482 1482 1482 1483 1483 1484 1484 1484 1484 1484 1485 1483 1483 1483 1483 1483 1483 1482 1480 1481
1467 1467 1467 1468 1468 1469 1469 1470 1470 1471 1472 1472 1473 1474 1474 1475 1476 1476 1477 1477 1477 1478 1478 1479 1479 1479 1478 1477 1477 1479 1478 1478 1477 1477 1477 1477 1476 1475
1461 1462 1462 1463 1463 1464 1464 1465 1465 1466 1466 1467 1468 1468 1469 1469 1470 1470 1471 1472 1472 1473 1473 1473 1473 1473 1473 1473 1472 1472 1473 1473 1472 1471 1471 1471 1471 1471
1456 1456 1457 1458 1458 1458 1459 1459 1460 1460 1461 1461 1462 1463 1463 1464 1464 1465 1466 1467 1467 1467 1467 1467 1468 1469 1469 1469 1467 1466 1467 1467 1467 1467 1466 1466 1465 1464
1450 1451 1451 1452 1452 1453 1453 1454 1454 1455 1455 1456 1456 1457 1458 1458 1459 1459 1460 1461 1461 1461 1462 1462 1463 1463 1463 1462 1460 1460 1460 1461 1461 1461 1461 1461 1460 1458
1445 1445 1446 1446 1447 1447 1447 1448 1448 1448 1449 1450 1450 1451 1452 1452 1453 1454 1454 1455 1455 1456 1456 1456 1456 1457 1456 1456 1455 1455 1455 1454 1454 1454 1454 1455 1455 1454